SL-12 R/B(AUX MOTOR), 13608

Orbit data source: Space-Track

SL-12 R/B(AUX MOTOR), 13608 is space debris originally from a launch on Tue, 12 Oct 1982 UTC launched from the Tyuratam Missile And Space Complex (TTMTR). Debris objects in space refer to the collection of defunct objects orbiting the Earth. Examples of debris include non-operational satellites, rocket bodies, and fragments generated from explosions, collisions, or faulty payload assembly.

Loading next visibility...
Identifier
13608, 1982-100F
Orbit
Active
Country
Flag of CISCIS
Related business
Manufacturer
NPO Energiya
Mission
Spacecraft
Bus & Motor
SOZ, Unknown motor
Mass
Wet unknown, ~60 kg dry
Launch date (UTC)
1982-10-12 (43 years ago)
Launch vehicle
Unknown
Launch site
Tyuratam Missile And Space Complex (TTMTR)
Object type
Payload
Rocket body
Debris
Shape & HBR
Unknown
Radar Cross Section
Medium (>0.1 m² and <1 m²)

Expand to show TLE details & history
Last TLE update: 12 hours ago

TLE from 12 hours ago
0 SL-12 R/B(AUX MOTOR)
1 13608U 82100F   26095.05024496  .00025708  00000-0  87661-3 0  9994
2 13608  52.0532 333.9086 3275450 316.0819  22.1178  8.85667002979797
Epoch: 2026-04-05T01:12Z
TLE epoch observation values (Epoch: 2026-04-05T01:12:21.164Z)
Latitude
0.00001°
Longitude
122.45919°
Altitude
752.423 km
Speed
8.452 km/s
True Right ascension
22h 15m 38s
True Declination
0° 00' 00"
Sunlit
Object was in daylight at epoch
Visualization orbit readout
Latitude
Unknown
Longitude
Unknown
Altitude
Unknown
Speed
Unknown
Apparent Right ascension
Unknown
Apparent Declination
Unknown
Sunlit
N/A
Visualization observer readout
Local Sidereal Time
19:30:20
Azimuth
Unknown
Elevation
Unknown
Doppler factor
Unknown
Orbital elements
Apogee altitude
6,722.328 km
Perigee altitude
257.776 km
Semi-major axis
9,868.189 km
Eccentricity
0.32755
Inclination
52.0532°
RAAN
333.9086°
Arg. of periapsis
316.0819°
True anomaly
44.00195°
Mean anomaly
22.1178°
Eccentric anomaly
32.08689°
Mean motion
2.21405 °/min
Orbital period
162.6 mins
BSTAR
0.00087661
Loading maneuver chart data...
Computing Atmospheric mass density...
Loading historical data...
Loading historical data...
Loading historical data...
Loading historical data...
Loading historical data...
Loading historical data...
Loading historical data...

Documentation

Showing up to 5 results
|